Location: Tel Aviv
(32.0670°N, 34.7670°E)
Time: 20:04:46
(UTC+03:00)

Transit 2A - Pass Details

Date: 07 June 2024
Orbit: 593 x 959 km, 66.7° (Epoch: 14 June)

Event Time Altitude Azimuth Distance (km) Brightness Sun altitude
Rises 20:15:16 0° 253° (WSW) 2,952 9.7 -6.3°
Reaches altitude 10° 20:18:34 10° 278° (W) 2,112 9.5 -6.9°
Maximum altitude 20:21:05 14° 311° (NW) 1,903 9.6 -7.3°
Drops below altitude 10° 20:23:44 10° 342° (NNW) 2,236 9.3 -7.8°
Sets 20:27:25 0° 7° (N) 3,255 9.6 -8.4°
